PUUANAHULU RAWS NEAR KAILUA KONA 20NE HADS current weather conditions

sailwx.info

Wind from 288 at 5 knots gusting 13

Air temperature 25.6° C
Dewpoint 14.0° C

Last reported at 2017-Jun-22 19:37 UTC.
Time now 2017-Jun-22 20:31 UTC

Location: N 19°50' W 155°46'.
View on Google Maps.

See reports from other nearby stations

  
Tides and Currents Weather Stations Pressure Air Temp Water Temp Dewpoint Dewpoint Depression Visibility Wind Speed Wind Dir Waves Ship Positions
date/time (UTC)wind fromknots sea level pressurealtimeterstation pressurevisibilityair tempwater tempwave heightnotes
2017-Jun-22 19:37 288 5 gusting 13 25.6
2017-Jun-22 18:37 026 10 gusting 14 23.9
2017-Jun-22 17:37 122 4 gusting 12 21.7
2017-Jun-22 16:37 162 7 gusting 13 18.3
2017-Jun-22 15:37 096 7 gusting 11 15.0
2017-Jun-22 14:37 142 6 gusting 10 16.1
2017-Jun-22 13:37 136 6 gusting 9 15.6
2017-Jun-22 12:37 132 6 gusting 9 16.1
2017-Jun-22 11:37 132 6 gusting 7 16.1
2017-Jun-22 10:37 147 4 gusting 7 16.1
2017-Jun-22 09:37 167 5 gusting 8 16.7
2017-Jun-22 08:37 155 3 gusting 5 16.1
2017-Jun-22 07:37 106 1 gusting 6 17.2
2017-Jun-22 06:37 182 6 gusting 8 17.8
2017-Jun-22 05:37 303 1 gusting 7 18.3
2017-Jun-22 04:37 349 6 gusting 13 18.9
2017-Jun-22 03:37 352 6 gusting 16 19.4
2017-Jun-22 02:37 008 9 gusting 14 21.1
2017-Jun-22 01:37 355 6 gusting 10 20.0
2017-Jun-22 00:37 329 6 gusting 12 21.1
2017-Jun-21 23:37 348 7 gusting 14 21.7
2017-Jun-21 22:37 304 5 gusting 14 24.4
2017-Jun-21 21:37 299 6 gusting 14 25.6
2017-Jun-21 20:37 266 3 gusting 7 25.0
2017-Jun-21 19:37 277 3 gusting 9 22.8
2017-Jun-21 18:37 222 6 gusting 9 21.7
2017-Jun-21 17:37 188 5 gusting 12 20.6
2017-Jun-21 16:37 177 9 gusting 14 17.2
2017-Jun-21 15:37 124 8 gusting 12 15.6
2017-Jun-21 14:37 178 8 gusting 12 15.6
2017-Jun-21 13:37 179 8 gusting 11 15.0
2017-Jun-21 12:37 115 4 gusting 8 16.1
2017-Jun-21 11:37 137 6 gusting 7 16.1
2017-Jun-21 10:37 145 4 gusting 6 16.7
2017-Jun-21 09:37 215 3 gusting 7 17.2
2017-Jun-21 08:37 205 5 gusting 6 17.8
2017-Jun-21 07:37 227 5 gusting 6 18.3
2017-Jun-21 06:37 233 3 gusting 6 19.4
2017-Jun-21 05:37 040 3 gusting 6 18.9
2017-Jun-21 04:37 300 3 gusting 5 20.0
2017-Jun-21 03:37 024 4 gusting 13 20.0
2017-Jun-21 02:37 291 7 gusting 13 22.8
2017-Jun-21 01:37 281 7 gusting 13 21.7
2017-Jun-21 00:37 307 6 gusting 16 22.2
2017-Jun-20 23:37 292 9 gusting 16 23.3
2017-Jun-20 22:37 303 9 gusting 14 25.0
2017-Jun-20 21:37 320 6 gusting 15 25.6
2017-Jun-20 20:37 301 6 gusting 13 24.4